General Aviation Weather

Text Reports

Enter one or more of the following location identifiers separated by a space:

Zip Code, Four-Character ICAO or Three-Character IATA airport codes.

METAR - Aviation Routine Weather Report
KRPH - Graham, Texas
Updated at 7:10 AM GMT on December 19, 2014 (1:10 AM CST):
METAR KRPH 190710Z AUTO 01005KT 4SM BR OVC003 07/07 A3014 RMK AO2 T00680067
TAF - Terminal Area Forecast
KRPH - Graham, Texas
Updated at 7:10 AM GMT on December 19, 2014 (1:10 AM CST):
No TAF is currently available for this location.
Decoded:
No decoded TAF is available.
PIREP - Pilot Weather Report
KRPH - Graham, Texas
Updated at 7:10 AM GMT on December 19, 2014 (1:10 AM CST):
No PIREP is currently available for this location.
AIRMET - Airmens Meteorological Information
KRPH - Graham, Texas
Updated at 7:10 AM GMT on December 19, 2014 (1:10 AM CST):
No AIRMET is currently available for this location.
SIGMET - Significant Meteorological Information
KRPH - Graham, Texas
Updated at 7:10 AM GMT on December 19, 2014 (1:10 AM CST):
No SIGMET is currently available for this location.
NOTAM - Notice to Airmen
KRPH - Graham, Texas
Updated at 7:10 AM GMT on December 19, 2014 (1:10 AM CST):
No NOTAM is currently available for this location.
Forecast Area
KRPH - Graham, Texas
Updated at 7:10 AM GMT on December 19, 2014 (1:10 AM CST):
No NOTAM is currently available for this location.
Aviation Weather Maps